| time (UTC) | temp F | wind direction | speed MPH | gust MPH | rain 1hr in | rain 24hr in | rain mn in | humidity % | barometer mb |
| 20260905093552 | 71 | 309 | 1.0 | 4.0 | 0.00 | 0.00 | 0.00 | 77 | 1011.4 |
| 20260905093051 | 71 | 309 | 1.0 | 4.0 | 0.00 | 0.00 | 0.00 | 76 | 1011.5 |
| 20260905092551 | 71 | 309 | 0.0 | 4.0 | 0.00 | 0.00 | 0.00 | 77 | 1011.4 |
| 20260905092050 | 71 | 309 | 1.0 | 5.0 | 0.00 | 0.00 | 0.00 | 76 | 1011.5 |
| 20260905091601 | 71 | 309 | 1.0 | 5.0 | 0.00 | 0.00 | 0.00 | 76 | 1011.5 |
| 20260905091049 | 71 | 309 | 1.0 | 4.0 | 0.00 | 0.00 | 0.00 | 76 | 1011.5 |
| 20260905090550 | 71 | 309 | 2.0 | 6.0 | 0.00 | 0.00 | 0.00 | 76 | 1011.4 |
| 20260905090049 | 71 | 309 | 1.0 | 6.0 | 0.00 | 0.00 | 0.00 | 76 | 1011.4 |
| 20260905085553 | 71 | 309 | 2.0 | 6.0 | 0.00 | 0.00 | 0.00 | 76 | 1011.5 |
| 20260905085050 | 71 | 309 | 2.0 | 5.0 | 0.00 | 0.00 | 0.00 | 76 | 1011.5 |
| 20260905084547 | 71 | 309 | 2.0 | 8.0 | 0.00 | 0.00 | 0.00 | 75 | 1011.5 |
| 20260905084047 | 71 | 309 | 2.0 | 8.0 | 0.00 | 0.00 | 0.00 | 76 | 1011.5 |
| 20260905083547 | 71 | 310 | 0.0 | 4.0 | 0.00 | 0.00 | 0.00 | 76 | 1011.6 |
| 20260905083046 | 71 | 310 | 1.0 | 4.0 | 0.00 | 0.00 | 0.00 | 76 | 1011.5 |
| 20260905082546 | 71 | 310 | 1.0 | 4.0 | 0.00 | 0.00 | 0.00 | 76 | 1011.4 |
| 20260905082045 | 71 | 310 | 0.0 | 6.0 | 0.00 | 0.00 | 0.00 | 76 | 1011.5 |
| 20260905081546 | 72 | 310 | 1.0 | 6.0 | 0.00 | 0.00 | 0.00 | 76 | 1011.5 |
| 20260905081049 | 71 | 310 | 1.0 | 4.0 | 0.00 | 0.00 | 0.00 | 76 | 1011.5 |
| 20260905080544 | 72 | 310 | 2.0 | 4.0 | 0.00 | 0.00 | 0.00 | 76 | 1011.5 |
| 20260905080043 | 72 | 310 | 2.0 | 5.0 | 0.00 | 0.00 | 0.00 | 75 | 1011.6 |
| 20260905075542 | 72 | 310 | 2.0 | 5.0 | 0.00 | 0.00 | 0.00 | 75 | 1011.6 |
| 20260905075042 | 72 | 310 | 2.0 | 5.0 | 0.00 | 0.00 | 0.00 | 75 | 1011.6 |
| 20260905074542 | 72 | 310 | 2.0 | 5.0 | 0.00 | 0.00 | 0.00 | 75 | 1011.6 |
| 20260905074044 | 72 | 310 | 1.0 | 5.0 | 0.00 | 0.00 | 0.00 | 75 | 1011.5 |
| 20260905073543 | 72 | 310 | 1.0 | 6.0 | 0.00 | 0.00 | 0.00 | 75 | 1011.4 |
| 20260905073041 | 72 | 310 | 3.0 | 5.0 | 0.00 | 0.00 | 0.00 | 75 | 1011.4 |
| 20260905072543 | 72 | 310 | 2.0 | 5.0 | 0.00 | 0.00 | 0.00 | 75 | 1011.4 |
| 20260905072040 | 72 | 310 | 2.0 | 5.0 | 0.00 | 0.00 | 0.00 | 75 | 1011.4 |
| 20260905071540 | 72 | 310 | 2.0 | 5.0 | 0.00 | 0.00 | 0.00 | 76 | 1011.5 |
| 20260905071040 | 72 | 310 | 1.0 | 5.0 | 0.00 | 0.00 | 0.00 | 76 | 1011.4 |
| 20260905070540 | 72 | 310 | 1.0 | 4.0 | 0.00 | 0.00 | 0.00 | 77 | 1011.3 |
| 20260905070044 | 72 | 310 | 1.0 | 4.0 | 0.00 | 0.00 | 0.00 | 77 | 1011.3 |
| 20260905065540 | 72 | 310 | 2.0 | 4.0 | 0.00 | 0.00 | 0.00 | 77 | 1011.3 |
| 20260905065040 | 72 | 310 | 1.0 | 5.0 | 0.00 | 0.00 | 0.00 | 77 | 1011.4 |
| 20260905064542 | 72 | 310 | 1.0 | 5.0 | 0.00 | 0.00 | 0.00 | 77 | 1011.6 |
| 20260905064039 | 73 | 310 | 2.0 | 4.0 | 0.00 | 0.00 | 0.00 | 76 | 1011.7 |
| 20260905063536 | 73 | 310 | 1.0 | 4.0 | 0.00 | 0.00 | 0.00 | 76 | 1011.7 |
| 20260905063037 | 73 | 310 | 0.0 | 5.0 | 0.00 | 0.00 | 0.00 | 76 | 1011.8 |
| 20260905062534 | 73 | 310 | 1.0 | 3.0 | 0.00 | 0.00 | 0.00 | 75 | 1011.7 |
| 20260905062037 | 73 | 310 | 1.0 | 5.0 | 0.00 | 0.00 | 0.00 | 75 | 1011.9 |
| 20260905061534 | 73 | 310 | 1.0 | 4.0 | 0.00 | 0.00 | 0.00 | 75 | 1011.9 |
| 20260905061032 | 73 | 310 | 1.0 | 4.0 | 0.00 | 0.00 | 0.00 | 75 | 1011.9 |
| 20260905060532 | 73 | 310 | 2.0 | 4.0 | 0.00 | 0.00 | 0.00 | 75 | 1011.9 |
| 20260905060033 | 73 | 310 | 1.0 | 4.0 | 0.00 | 0.00 | 0.00 | 74 | 1012.0 |
| 20260905055532 | 74 | 310 | 1.0 | 5.0 | 0.00 | 0.00 | 0.00 | 74 | 1011.9 |
| 20260905055031 | 74 | 310 | 1.0 | 5.0 | 0.00 | 0.00 | 0.00 | 74 | 1012.0 |
| 20260905054535 | 74 | 310 | 2.0 | 5.0 | 0.00 | 0.00 | 0.00 | 74 | 1011.9 |
| 20260905054029 | 74 | 310 | 2.0 | 5.0 | 0.00 | 0.00 | 0.00 | 74 | 1012.1 |
| 20260905053529 | 74 | 310 | 2.0 | 5.0 | 0.00 | 0.00 | 0.00 | 74 | 1012.1 |
| 20260905053028 | 74 | 310 | 1.0 | 5.0 | 0.00 | 0.00 | 0.00 | 74 | 1012.2 |
| 20260905052526 | 74 | 310 | 1.0 | 3.0 | 0.00 | 0.00 | 0.00 | 73 | 1012.3 |
| 20260905052027 | 74 | 310 | 0.0 | 4.0 | 0.00 | 0.00 | 0.00 | 73 | 1012.3 |
| 20260905051527 | 74 | 310 | 1.0 | 5.0 | 0.00 | 0.00 | 0.00 | 73 | 1012.4 |
| 20260905051025 | 74 | 310 | 2.0 | 5.0 | 0.00 | 0.00 | 0.00 | 72 | 1012.4 |
| 20260905050525 | 74 | 310 | 2.0 | 5.0 | 0.00 | 0.00 | 0.00 | 72 | 1012.3 |
| 20260905050025 | 74 | 310 | 1.0 | 5.0 | 0.00 | 0.00 | 0.00 | 72 | 1012.3 |
| 20260905045523 | 75 | 310 | 2.0 | 8.0 | 0.00 | 0.00 | 0.00 | 72 | 1012.4 |
| 20260905045027 | 75 | 310 | 2.0 | 6.0 | 0.00 | 0.00 | 0.00 | 71 | 1012.4 |
| 20260905044523 | 75 | 310 | 1.0 | 5.0 | 0.00 | 0.00 | 0.00 | 71 | 1012.4 |
| 20260905044021 | 75 | 310 | 2.0 | 6.0 | 0.00 | 0.00 | 0.00 | 70 | 1012.4 |
| 20260905043521 | 75 | 310 | 3.0 | 9.0 | 0.00 | 0.00 | 0.00 | 70 | 1012.4 |
| 20260905043022 | 75 | 310 | 3.0 | 9.0 | 0.00 | 0.00 | 0.00 | 70 | 1012.3 |
| 20260905042518 | 75 | 309 | 2.0 | 9.0 | 0.00 | 0.00 | 0.00 | 69 | 1012.4 |
| 20260905042017 | 75 | 309 | 2.0 | 6.0 | 0.00 | 0.00 | 0.00 | 69 | 1012.4 |
| 20260905041519 | 75 | 309 | 2.0 | 5.0 | 0.00 | 0.00 | 0.00 | 69 | 1012.5 |
| 20260905041016 | 75 | 309 | 1.0 | 8.0 | 0.00 | 0.00 | 0.00 | 69 | 1012.4 |
| 20260905040514 | 76 | 309 | 2.0 | 8.0 | 0.00 | 0.00 | 0.00 | 69 | 1012.4 |
| 20260905040016 | 76 | 308 | 3.0 | 8.0 | 0.00 | 0.00 | 0.00 | 69 | 1012.4 |
| 20260905035510 | 76 | 308 | 3.0 | 8.0 | 0.00 | 0.00 | 0.00 | 69 | 1012.4 |
| 20260905035011 | 76 | 307 | 2.0 | 6.0 | 0.00 | 0.00 | 0.00 | 68 | 1012.4 |
| 20260905034519 | 76 | 309 | 2.0 | 4.0 | 0.00 | 0.00 | 0.00 | 68 | 1012.4 |
| 20260905034011 | 76 | 309 | 2.0 | 4.0 | 0.00 | 0.00 | 0.00 | 68 | 1012.4 |
| 20260905033510 | 76 | 309 | 1.0 | 8.0 | 0.00 | 0.00 | 0.00 | 68 | 1012.5 |
| 20260905033010 | 76 | 309 | 1.0 | 8.0 | 0.00 | 0.00 | 0.00 | 69 | 1012.5 |
| 20260905032511 | 75 | 310 | 1.0 | 4.0 | 0.00 | 0.00 | 0.00 | 69 | 1012.4 |
| 20260905032012 | 75 | 309 | 1.0 | 4.0 | 0.00 | 0.00 | 0.00 | 69 | 1012.4 |
| 20260905031509 | 75 | 310 | 1.0 | 5.0 | 0.00 | 0.00 | 0.00 | 69 | 1012.4 |
| 20260905031009 | 75 | 309 | 2.0 | 4.0 | 0.00 | 0.00 | 0.00 | 70 | 1012.4 |
| 20260905030509 | 75 | 309 | 1.0 | 3.0 | 0.00 | 0.00 | 0.00 | 70 | 1012.3 |
| 20260905030009 | 75 | 309 | 0.0 | 3.0 | 0.00 | 0.00 | 0.00 | 69 | 1012.3 |
| 20260905025509 | 75 | 309 | 0.0 | 2.0 | 0.00 | 0.00 | 0.00 | 69 | 1012.3 |
| 20260905025009 | 75 | 309 | 0.0 | 0.0 | 0.00 | 0.00 | 0.00 | 69 | 1012.4 |
| 20260905024509 | 75 | 309 | 0.0 | 1.0 | 0.00 | 0.00 | 0.00 | 69 | 1012.3 |
| 20260905024008 | 75 | 309 | 0.0 | 2.0 | 0.00 | 0.00 | 0.00 | 68 | 1012.3 |
| 20260905023509 | 75 | 309 | 0.0 | 3.0 | 0.00 | 0.00 | 0.00 | 68 | 1012.4 |
| 20260905023011 | 76 | 309 | 0.0 | 3.0 | 0.00 | 0.00 | 0.00 | 68 | 1012.4 |
| 20260905022508 | 76 | 309 | 0.0 | 2.0 | 0.00 | 0.00 | 0.00 | 67 | 1012.5 |
| 20260905022007 | 76 | 309 | 0.0 | 5.0 | 0.00 | 0.00 | 0.00 | 67 | 1012.4 |
| 20260905021508 | 76 | 309 | 0.0 | 5.0 | 0.00 | 0.00 | 0.00 | 66 | 1012.4 |
| 20260905021010 | 76 | 310 | 0.0 | 3.0 | 0.00 | 0.00 | 0.00 | 66 | 1012.4 |
| 20260905020508 | 76 | 309 | 1.0 | 4.0 | 0.00 | 0.00 | 0.00 | 65 | 1012.4 |
| 20260905020007 | 77 | 310 | 1.0 | 3.0 | 0.00 | 0.00 | 0.00 | 65 | 1012.5 |
| 20260905015507 | 77 | 310 | 0.0 | 3.0 | 0.00 | 0.00 | 0.00 | 65 | 1012.5 |
| 20260905015007 | 77 | 309 | 1.0 | 5.0 | 0.00 | 0.00 | 0.00 | 65 | 1012.5 |
| 20260905014506 | 77 | 310 | 2.0 | 8.0 | 0.00 | 0.00 | 0.00 | 64 | 1012.5 |
| 20260905014006 | 77 | 310 | 2.0 | 8.0 | 0.00 | 0.00 | 0.00 | 64 | 1012.6 |
| 20260905013506 | 77 | 311 | 2.0 | 6.0 | 0.00 | 0.00 | 0.00 | 64 | 1012.5 |
| 20260905013005 | 77 | 311 | 3.0 | 6.0 | 0.00 | 0.00 | 0.00 | 65 | 1012.6 |
| 20260905012505 | 77 | 311 | 2.0 | 5.0 | 0.00 | 0.00 | 0.00 | 66 | 1012.6 |
| 20260905012006 | 77 | 312 | 0.0 | 2.0 | 0.00 | 0.00 | 0.00 | 66 | 1012.5 |
| 20260905011505 | 77 | 312 | 0.0 | 2.0 | 0.00 | 0.00 | 0.00 | 67 | 1012.4 |
| 20260905011009 | 77 | 312 | 0.0 | 1.0 | 0.00 | 0.00 | 0.00 | 65 | 1012.4 |
| 20260905010505 | 77 | 312 | 0.0 | 2.0 | 0.00 | 0.00 | 0.00 | 64 | 1012.4 |
| 20260905010005 | 78 | 312 | 0.0 | 3.0 | 0.00 | 0.00 | 0.00 | 63 | 1012.4 |
| 20260905005505 | 78 | 312 | 0.0 | 3.0 | 0.00 | 0.00 | 0.00 | 63 | 1012.4 |
| 20260905005005 | 78 | 312 | 0.0 | 3.0 | 0.00 | 0.00 | 0.00 | 62 | 1012.5 |
| 20260905004505 | 78 | 312 | 0.0 | 2.0 | 0.00 | 0.00 | 0.00 | 62 | 1012.5 |
| 20260905004008 | 78 | 312 | 0.0 | 2.0 | 0.00 | 0.00 | 0.00 | 62 | 1012.4 |
| 20260905003505 | 79 | 312 | 0.0 | 3.0 | 0.00 | 0.00 | 0.00 | 62 | 1012.5 |
| 20260905003006 | 79 | 312 | 0.0 | 3.0 | 0.00 | 0.00 | 0.00 | 61 | 1012.5 |
| 20260905002503 | 79 | 312 | 1.0 | 3.0 | 0.00 | 0.00 | 0.00 | 61 | 1012.5 |
| 20260905002004 | 79 | 312 | 1.0 | 3.0 | 0.00 | 0.00 | 0.00 | 60 | 1012.5 |
| 20260905001507 | 79 | 312 | 0.0 | 3.0 | 0.00 | 0.00 | 0.00 | 60 | 1012.5 |
| 20260905001003 | 79 | 312 | 2.0 | 4.0 | 0.00 | 0.00 | 0.00 | 59 | 1012.4 |
| 20260905000503 | 80 | 312 | 2.0 | 6.0 | 0.00 | 0.00 | 0.00 | 59 | 1012.2 |
| 20260905000003 | 80 | 312 | 2.0 | 6.0 | 0.00 | 0.00 | 0.00 | 59 | 1012.2 |
| 20260904235503 | 80 | 311 | 2.0 | 6.0 | 0.00 | 0.00 | 0.00 | 59 | 1012.2 |
| 20260904235003 | 80 | 311 | 2.0 | 6.0 | 0.00 | 0.00 | 0.00 | 58 | 1012.3 |
| 20260904234503 | 80 | 311 | 2.0 | 8.0 | 0.00 | 0.00 | 0.00 | 58 | 1012.3 |
| 20260904234002 | 80 | 310 | 2.0 | 5.0 | 0.00 | 0.00 | 0.00 | 58 | 1012.3 |
| 20260904233502 | 80 | 310 | 2.0 | 10.0 | 0.00 | 0.00 | 0.00 | 57 | 1012.3 |
| 20260904233002 | 80 | 314 | 2.0 | 5.0 | 0.00 | 0.00 | 0.00 | 57 | 1012.2 |
| 20260904232504 | 81 | 314 | 1.0 | 8.0 | 0.00 | 0.00 | 0.00 | 57 | 1012.3 |
| 20260904232001 | 81 | 314 | 2.0 | 8.0 | 0.00 | 0.00 | 0.00 | 56 | 1012.1 |
| 20260904231501 | 81 | 312 | 1.0 | 8.0 | 0.00 | 0.00 | 0.00 | 56 | 1012.1 |
| 20260904231002 | 81 | 315 | 2.0 | 10.0 | 0.00 | 0.00 | 0.00 | 56 | 1012.1 |
| 20260904230502 | 82 | 316 | 3.0 | 10.0 | 0.00 | 0.00 | 0.00 | 56 | 1012.0 |
| 20260904230003 | 82 | 315 | 1.0 | 10.0 | 0.00 | 0.00 | 0.00 | 57 | 1012.1 |
| 20260904225500 | 82 | 315 | 4.0 | 10.0 | 0.00 | 0.00 | 0.00 | 56 | 1012.0 |
| 20260904225002 | 82 | 328 | 2.0 | 8.0 | 0.00 | 0.00 | 0.00 | 56 | 1012.1 |
| 20260904224500 | 83 | 334 | 3.0 | 10.0 | 0.00 | 0.00 | 0.00 | 55 | 1012.2 |
| 20260904224002 | 83 | 338 | 4.0 | 12.0 | 0.00 | 0.00 | 0.00 | 55 | 1012.1 |
| 20260904223504 | 83 | 319 | 4.0 | 12.0 | 0.00 | 0.00 | 0.00 | 55 | 1012.2 |
| 20260904223106 | 83 | 295 | 3.0 | 12.0 | 0.00 | 0.00 | 0.00 | 54 | 1012.0 |
| 20260904222559 | 83 | 317 | 2.0 | 13.0 | 0.00 | 0.00 | 0.00 | 54 | 1012.0 |
| 20260904222059 | 84 | 310 | 3.0 | 14.0 | 0.00 | 0.00 | 0.00 | 54 | 1012.0 |
| 20260904221559 | 84 | 315 | 5.0 | 15.0 | 0.00 | 0.00 | 0.00 | 53 | 1012.1 |
| 20260904221159 | 84 | 286 | 4.0 | 15.0 | 0.00 | 0.00 | 0.00 | 53 | 1012.1 |
| 20260904220559 | 84 | 302 | 4.0 | 13.0 | 0.00 | 0.00 | 0.00 | 53 | 1011.9 |
| 20260904220059 | 85 | 346 | 6.0 | 13.0 | 0.00 | 0.00 | 0.00 | 51 | 1011.8 |
| 20260904215558 | 84 | 303 | 4.0 | 13.0 | 0.00 | 0.00 | 0.00 | 52 | 1011.9 |
| 20260904215059 | 84 | 288 | 4.0 | 15.0 | 0.00 | 0.00 | 0.00 | 51 | 1011.8 |
| 20260904214600 | 85 | 344 | 7.0 | 17.0 | 0.00 | 0.00 | 0.00 | 51 | 1011.8 |
| 20260904214058 | 85 | 296 | 8.0 | 17.0 | 0.00 | 0.00 | 0.00 | 49 | 1011.8 |
| 20260904213558 | 85 | 350 | 7.0 | 18.0 | 0.00 | 0.00 | 0.00 | 51 | 1011.5 |
| 20260904213058 | 85 | 297 | 8.0 | 18.0 | 0.00 | 0.00 | 0.00 | 51 | 1011.6 |
| 20260904212556 | 85 | 293 | 9.0 | 15.0 | 0.00 | 0.00 | 0.00 | 51 | 1011.6 |
| 20260904212056 | 85 | 296 | 8.0 | 17.0 | 0.00 | 0.00 | 0.00 | 51 | 1011.7 |
| 20260904211556 | 85 | 291 | 10.0 | 17.0 | 0.00 | 0.00 | 0.00 | 50 | 1011.8 |
| 20260904211056 | 85 | 326 | 7.0 | 17.0 | 0.00 | 0.00 | 0.00 | 50 | 1011.9 |
| 20260904210556 | 86 | 300 | 7.0 | 11.0 | 0.00 | 0.00 | 0.00 | 51 | 1011.9 |
| 20260904210059 | 86 | 302 | 6.0 | 15.0 | 0.00 | 0.00 | 0.00 | 52 | 1011.9 |
| 20260904205556 | 86 | 296 | 7.0 | 15.0 | 0.00 | 0.00 | 0.00 | 51 | 1011.9 |
| 20260904205055 | 86 | 338 | 6.0 | 17.0 | 0.00 | 0.00 | 0.00 | 50 | 1011.9 |
| 20260904204556 | 86 | 292 | 7.0 | 17.0 | 0.00 | 0.00 | 0.00 | 51 | 1012.1 |
| 20260904204055 | 86 | 298 | 8.0 | 15.0 | 0.00 | 0.00 | 0.00 | 52 | 1012.0 |
| 20260904203555 | 86 | 348 | 5.0 | 12.0 | 0.00 | 0.00 | 0.00 | 53 | 1011.9 |
| 20260904203057 | 86 | 301 | 4.0 | 14.0 | 0.00 | 0.00 | 0.00 | 53 | 1012.0 |
| 20260904202555 | 86 | 288 | 5.0 | 12.0 | 0.00 | 0.00 | 0.00 | 53 | 1012.0 |
| 20260904202058 | 85 | 298 | 3.0 | 10.0 | 0.00 | 0.00 | 0.00 | 54 | 1011.9 |
| 20260904201554 | 85 | 292 | 3.0 | 16.0 | 0.00 | 0.00 | 0.00 | 55 | 1012.0 |
| 20260904201058 | 85 | 290 | 7.0 | 16.0 | 0.00 | 0.00 | 0.00 | 53 | 1012.2 |
| 20260904200554 | 86 | 335 | 5.0 | 13.0 | 0.00 | 0.00 | 0.00 | 53 | 1012.2 |
| 20260904200054 | 86 | 291 | 3.0 | 14.0 | 0.00 | 0.00 | 0.00 | 54 | 1012.2 |
| 20260904195555 | 85 | 298 | 7.0 | 14.0 | 0.00 | 0.00 | 0.00 | 53 | 1012.3 |
| 20260904195054 | 85 | 296 | 7.0 | 13.0 | 0.00 | 0.00 | 0.00 | 54 | 1012.2 |
| 20260904194603 | 85 | 302 | 7.0 | 13.0 | 0.00 | 0.00 | 0.00 | 54 | 1012.4 |
| 20260904194053 | 85 | 347 | 5.0 | 11.0 | 0.00 | 0.00 | 0.00 | 54 | 1012.4 |
| 20260904193554 | 85 | 348 | 4.0 | 11.0 | 0.00 | 0.00 | 0.00 | 54 | 1012.4 |
| 20260904193053 | 86 | 296 | 6.0 | 13.0 | 0.00 | 0.00 | 0.00 | 54 | 1012.5 |
| 20260904192552 | 85 | 295 | 9.0 | 13.0 | 0.00 | 0.00 | 0.00 | 54 | 1012.5 |
| 20260904192052 | 85 | 269 | 7.0 | 13.0 | 0.00 | 0.00 | 0.00 | 53 | 1012.6 |
| 20260904191552 | 86 | 360 | 3.0 | 16.0 | 0.00 | 0.00 | 0.00 | 55 | 1012.7 |
| 20260904191054 | 86 | 296 | 8.0 | 16.0 | 0.00 | 0.00 | 0.00 | 54 | 1012.7 |
| 20260904190552 | 86 | 291 | 9.0 | 15.0 | 0.00 | 0.00 | 0.00 | 53 | 1012.7 |
| 20260904190055 | 86 | 360 | 4.0 | 12.0 | 0.00 | 0.00 | 0.00 | 54 | 1012.6 |
| 20260904185550 | 85 | 290 | 6.0 | 15.0 | 0.00 | 0.00 | 0.00 | 54 | 1012.7 |
| 20260904185050 | 85 | 314 | 6.0 | 15.0 | 0.00 | 0.00 | 0.00 | 54 | 1012.7 |
| 20260904184550 | 85 | 344 | 5.0 | 16.0 | 0.00 | 0.00 | 0.00 | 53 | 1012.7 |
| 20260904184050 | 86 | 286 | 5.0 | 16.0 | 0.00 | 0.00 | 0.00 | 53 | 1012.7 |
| 20260904183549 | 86 | 307 | 7.0 | 14.0 | 0.00 | 0.00 | 0.00 | 53 | 1012.6 |
| 20260904183105 | 85 | 349 | 7.0 | 19.0 | 0.00 | 0.00 | 0.00 | 52 | 1012.8 |
| 20260904182549 | 86 | 288 | 7.0 | 19.0 | 0.00 | 0.00 | 0.00 | 53 | 1012.7 |
| 20260904182048 | 86 | 313 | 5.0 | 15.0 | 0.00 | 0.00 | 0.00 | 53 | 1012.6 |
| 20260904181548 | 85 | 337 | 8.0 | 17.0 | 0.00 | 0.00 | 0.00 | 52 | 1012.7 |
| 20260904181051 | 86 | 5 | 6.0 | 17.0 | 0.00 | 0.00 | 0.00 | 53 | 1012.8 |
| 20260904180551 | 86 | 338 | 5.0 | 18.0 | 0.00 | 0.00 | 0.00 | 53 | 1012.8 |
| 20260904180048 | 86 | 292 | 7.0 | 18.0 | 0.00 | 0.00 | 0.00 | 52 | 1012.9 |
| 20260904175547 | 86 | 301 | 5.0 | 15.0 | 0.00 | 0.00 | 0.00 | 52 | 1012.8 |
| 20260904175049 | 85 | 295 | 7.0 | 15.0 | 0.00 | 0.00 | 0.00 | 51 | 1012.8 |
| 20260904174547 | 85 | 307 | 8.0 | 18.0 | 0.00 | 0.00 | 0.00 | 53 | 1012.8 |
| 20260904174045 | 85 | 331 | 7.0 | 21.0 | 0.00 | 0.00 | 0.00 | 54 | 1012.7 |
| 20260904173546 | 85 | 291 | 9.0 | 21.0 | 0.00 | 0.00 | 0.00 | 53 | 1012.7 |
| 20260904173046 | 85 | 296 | 10.0 | 19.0 | 0.00 | 0.00 | 0.00 | 54 | 1012.7 |
| 20260904172546 | 86 | 320 | 7.0 | 15.0 | 0.00 | 0.00 | 0.00 | 53 | 1012.7 |
| 20260904172044 | 85 | 297 | 5.0 | 20.0 | 0.00 | 0.00 | 0.00 | 55 | 1012.7 |
| 20260904171545 | 85 | 5 | 8.0 | 20.0 | 0.00 | 0.00 | 0.00 | 53 | 1012.9 |
| 20260904171047 | 85 | 292 | 10.0 | 19.0 | 0.00 | 0.00 | 0.00 | 53 | 1012.8 |
| 20260904170545 | 85 | 318 | 8.0 | 24.0 | 0.00 | 0.00 | 0.00 | 54 | 1012.8 |
| 20260904170043 | 85 | 19 | 13.0 | 24.0 | 0.00 | 0.00 | 0.00 | 53 | 1012.8 |
| 20260904165542 | 85 | 288 | 9.0 | 18.0 | 0.00 | 0.00 | 0.00 | 56 | 1012.7 |
| 20260904165043 | 85 | 325 | 6.0 | 16.0 | 0.00 | 0.00 | 0.00 | 57 | 1012.7 |
| 20260904164541 | 85 | 24 | 6.0 | 16.0 | 0.00 | 0.00 | 0.00 | 58 | 1012.8 |
| 20260904164041 | 85 | 347 | 4.0 | 17.0 | 0.00 | 0.00 | 0.00 | 58 | 1012.8 |
| 20260904163543 | 85 | 303 | 9.0 | 17.0 | 0.00 | 0.00 | 0.00 | 58 | 1012.8 |
| 20260904163040 | 85 | 296 | 7.0 | 13.0 | 0.00 | 0.00 | 0.00 | 57 | 1012.8 |
| 20260904162539 | 85 | 348 | 6.0 | 13.0 | 0.00 | 0.00 | 0.00 | 57 | 1012.9 |
| 20260904162038 | 85 | 306 | 5.0 | 11.0 | 0.00 | 0.00 | 0.00 | 59 | 1012.8 |
| 20260904161541 | 84 | 290 | 6.0 | 14.0 | 0.00 | 0.00 | 0.00 | 61 | 1013.0 |
| 20260904161037 | 84 | 298 | 6.0 | 14.0 | 0.00 | 0.00 | 0.00 | 60 | 1012.8 |
| 20260904160538 | 85 | 338 | 4.0 | 22.0 | 0.00 | 0.00 | 0.00 | 60 | 1013.0 |
| 20260904160039 | 85 | 291 | 5.0 | 22.0 | 0.00 | 0.00 | 0.00 | 60 | 1013.0 |
| 20260904155536 | 84 | 293 | 6.0 | 13.0 | 0.00 | 0.00 | 0.00 | 61 | 1013.1 |
| 20260904155036 | 84 | 308 | 6.0 | 15.0 | 0.00 | 0.00 | 0.00 | 62 | 1013.1 |
| 20260904154535 | 84 | 350 | 6.0 | 15.0 | 0.00 | 0.00 | 0.00 | 60 | 1013.0 |
| 20260904154035 | 84 | 360 | 7.0 | 14.0 | 0.00 | 0.00 | 0.00 | 61 | 1013.1 |
| 20260904153535 | 84 | 299 | 5.0 | 14.0 | 0.00 | 0.00 | 0.00 | 61 | 1013.2 |
| 20260904153043 | 84 | 17 | 4.0 | 18.0 | 0.00 | 0.00 | 0.00 | 63 | 1013.3 |
| 20260904152532 | 84 | 296 | 4.0 | 18.0 | 0.00 | 0.00 | 0.00 | 64 | 1013.3 |
| 20260904152032 | 84 | 346 | 6.0 | 14.0 | 0.00 | 0.00 | 0.00 | 64 | 1013.4 |
| 20260904151531 | 84 | 304 | 4.0 | 15.0 | 0.00 | 0.00 | 0.00 | 65 | 1013.3 |
| 20260904151030 | 83 | 338 | 6.0 | 16.0 | 0.00 | 0.00 | 0.00 | 68 | 1013.5 |
| 20260904150530 | 83 | 320 | 8.0 | 16.0 | 0.00 | 0.00 | 0.00 | 68 | 1013.4 |
| 20260904150030 | 83 | 317 | 4.0 | 10.0 | 0.00 | 0.00 | 0.00 | 68 | 1013.4 |
| 20260904145530 | 83 | 315 | 4.0 | 13.0 | 0.00 | 0.00 | 0.00 | 70 | 1013.4 |
| 20260904145029 | 82 | 313 | 5.0 | 13.0 | 0.00 | 0.00 | 0.00 | 71 | 1013.4 |
| 20260904144530 | 82 | 336 | 6.0 | 13.0 | 0.00 | 0.00 | 0.00 | 72 | 1013.4 |
| 20260904144026 | 82 | 311 | 4.0 | 11.0 | 0.00 | 0.00 | 0.00 | 73 | 1013.4 |
| 20260904143525 | 82 | 312 | 4.0 | 12.0 | 0.00 | 0.00 | 0.00 | 75 | 1013.4 |
| 20260904143024 | 81 | 314 | 4.0 | 12.0 | 0.00 | 0.00 | 0.00 | 75 | 1013.3 |
| 20260904142523 | 81 | 306 | 5.0 | 13.0 | 0.00 | 0.00 | 0.00 | 76 | 1013.3 |
| 20260904142025 | 81 | 304 | 5.0 | 13.0 | 0.00 | 0.00 | 0.00 | 76 | 1013.3 |
| 20260904141523 | 81 | 305 | 5.0 | 10.0 | 0.00 | 0.00 | 0.00 | 77 | 1013.2 |
| 20260904141024 | 81 | 306 | 2.0 | 6.0 | 0.00 | 0.00 | 0.00 | 76 | 1013.2 |
| 20260904140521 | 80 | 306 | 2.0 | 10.0 | 0.00 | 0.00 | 0.00 | 78 | 1013.2 |
| 20260904140021 | 80 | 306 | 5.0 | 10.0 | 0.00 | 0.00 | 0.00 | 78 | 1013.2 |
| 20260904135522 | 79 | 306 | 4.0 | 10.0 | 0.00 | 0.01 | 0.00 | 78 | 1013.2 |
| 20260904135020 | 80 | 306 | 2.0 | 12.0 | 0.00 | 0.01 | 0.00 | 79 | 1013.3 |
| 20260904134524 | 79 | 306 | 4.0 | 12.0 | 0.00 | 0.01 | 0.00 | 79 | 1013.2 |
| 20260904134018 | 79 | 308 | 3.0 | 11.0 | 0.00 | 0.01 | 0.00 | 79 | 1013.0 |
| 20260904133518 | 79 | 308 | 5.0 | 11.0 | 0.00 | 0.01 | 0.00 | 80 | 1013.0 |
| 20260904133018 | 79 | 313 | 5.0 | 12.0 | 0.00 | 0.01 | 0.00 | 79 | 1013.0 |
| 20260904132518 | 79 | 317 | 3.0 | 9.0 | 0.00 | 0.01 | 0.00 | 80 | 1013.1 |
| 20260904132019 | 79 | 319 | 3.0 | 11.0 | 0.00 | 0.01 | 0.00 | 81 | 1013.0 |
| 20260904131517 | 78 | 320 | 4.0 | 12.0 | 0.00 | 0.01 | 0.00 | 80 | 1013.0 |
| 20260904131018 | 78 | 319 | 5.0 | 12.0 | 0.00 | 0.01 | 0.00 | 80 | 1012.9 |
| 20260904130516 | 79 | 331 | 2.0 | 10.0 | 0.00 | 0.01 | 0.00 | 80 | 1012.9 |
| 20260904130035 | 78 | 331 | 3.0 | 10.0 | 0.00 | 0.01 | 0.00 | 81 | 1012.8 |
| 20260904125515 | 78 | 331 | 2.0 | 13.0 | 0.00 | 0.01 | 0.00 | 82 | 1012.9 |
| 20260904125017 | 77 | 331 | 5.0 | 13.0 | 0.00 | 0.01 | 0.00 | 82 | 1012.9 |
| 20260904124514 | 78 | 325 | 3.0 | 12.0 | 0.00 | 0.01 | 0.00 | 82 | 1012.8 |
| 20260904124014 | 77 | 330 | 5.0 | 12.0 | 0.00 | 0.01 | 0.00 | 82 | 1012.8 |
| 20260904123514 | 77 | 330 | 5.0 | 13.0 | 0.00 | 0.01 | 0.00 | 83 | 1012.8 |
| 20260904123021 | 77 | 324 | 5.0 | 13.0 | 0.00 | 0.01 | 0.00 | 84 | 1012.8 |
| 20260904122512 | 77 | 333 | 6.0 | 12.0 | 0.00 | 0.01 | 0.00 | 84 | 1012.8 |
| 20260904122013 | 77 | 328 | 2.0 | 11.0 | 0.00 | 0.01 | 0.00 | 86 | 1012.8 |
| 20260904121512 | 77 | 328 | 4.0 | 12.0 | 0.00 | 0.01 | 0.00 | 86 | 1012.8 |
| 20260904121011 | 77 | 328 | 5.0 | 13.0 | 0.00 | 0.01 | 0.00 | 87 | 1012.8 |
| 20260904120516 | 76 | 314 | 5.0 | 13.0 | 0.00 | 0.01 | 0.00 | 88 | 1012.8 |
| 20260904120011 | 76 | 291 | 4.0 | 9.0 | 0.00 | 0.01 | 0.00 | 89 | 1012.8 |
| 20260904115511 | 76 | 279 | 3.0 | 9.0 | 0.00 | 0.01 | 0.00 | 90 | 1012.9 |
| 20260904115015 | 76 | 277 | 3.0 | 9.0 | 0.00 | 0.01 | 0.00 | 91 | 1012.9 |
| 20260904114511 | 76 | 276 | 2.0 | 6.0 | 0.00 | 0.01 | 0.00 | 91 | 1012.9 |
| 20260904114011 | 75 | 276 | 3.0 | 9.0 | 0.00 | 0.01 | 0.00 | 91 | 1012.7 |
| 20260904113511 | 75 | 276 | 4.0 | 9.0 | 0.00 | 0.01 | 0.00 | 91 | 1012.6 |
| 20260904113010 | 75 | 276 | 2.0 | 9.0 | 0.00 | 0.01 | 0.00 | 92 | 1012.6 |
| 20260904112510 | 75 | 276 | 3.0 | 10.0 | 0.00 | 0.01 | 0.00 | 92 | 1012.5 |
| 20260904112008 | 75 | 276 | 4.0 | 10.0 | 0.00 | 0.01 | 0.00 | 92 | 1012.4 |
| 20260904111508 | 75 | 271 | 3.0 | 8.0 | 0.00 | 0.01 | 0.00 | 92 | 1012.4 |
| 20260904111008 | 75 | 271 | 2.0 | 7.0 | 0.00 | 0.01 | 0.00 | 92 | 1012.3 |
| 20260904110509 | 74 | 271 | 1.0 | 6.0 | 0.00 | 0.01 | 0.00 | 92 | 1012.2 |
| 20260904110008 | 74 | 271 | 2.0 | 6.0 | 0.00 | 0.01 | 0.00 | 92 | 1012.3 |
| 20260904105510 | 75 | 271 | 1.0 | 7.0 | 0.00 | 0.01 | 0.00 | 92 | 1012.4 |
| 20260904105008 | 75 | 271 | 2.0 | 7.0 | 0.00 | 0.01 | 0.00 | 91 | 1012.3 |
| 20260904104519 | 75 | 271 | 1.0 | 7.0 | 0.00 | 0.01 | 0.00 | 91 | 1012.2 |
| 20260904104007 | 75 | 271 | 1.0 | 4.0 | 0.00 | 0.01 | 0.00 | 90 | 1012.1 |
| 20260904103507 | 75 | 271 | 1.0 | 9.0 | 0.00 | 0.01 | 0.00 | 89 | 1012.2 |
| 20260904103005 | 75 | 271 | 4.0 | 9.0 | 0.00 | 0.01 | 0.00 | 89 | 1012.1 |
| 20260904102505 | 75 | 271 | 3.0 | 11.0 | 0.00 | 0.01 | 0.00 | 89 | 1012.0 |
| 20260904102004 | 75 | 271 | 6.0 | 11.0 | 0.00 | 0.01 | 0.00 | 89 | 1012.0 |
| 20260904101504 | 75 | 261 | 3.0 | 9.0 | 0.00 | 0.01 | 0.00 | 88 | 1011.9 |
| 20260904101006 | 75 | 261 | 4.0 | 9.0 | 0.00 | 0.01 | 0.00 | 88 | 1011.8 |
| 20260904100502 | 75 | 257 | 4.0 | 9.0 | 0.00 | 0.01 | 0.00 | 88 | 1011.8 |
| 20260904100002 | 75 | 247 | 2.0 | 9.0 | 0.00 | 0.01 | 0.00 | 88 | 1011.7 |
| 20260904095502 | 76 | 246 | 3.0 | 8.0 | 0.00 | 0.01 | 0.00 | 88 | 1011.7 |
| 20260904095002 | 76 | 246 | 4.0 | 8.0 | 0.00 | 0.01 | 0.00 | 88 | 1011.5 |
| 20260904094601 | 76 | 246 | 4.0 | 8.0 | 0.00 | 0.01 | 0.00 | 88 | 1011.6 |
| 20260904094103 | 76 | 246 | 4.0 | 8.0 | 0.00 | 0.01 | 0.00 | 88 | 1011.8 |